FW7766 Weather Reports


Display with metric or nautical units.
time (UTC)temp
F
wind
direction
speed
MPH
gust
MPH
rain 1hr
in
rain 24hr
in
rain mn
in
humidity
%
barometer
mb
20260903133026 77 0.0 0.0 0.00 0.00 0.00 63 1019.6
20260903132023 76 0.0 1.0 0.00 0.00 0.00 65 1019.6
20260903131019 75 0.0 0.0 0.00 0.00 0.00 66 1019.6
20260903130016 75 0.0 0.0 0.00 0.00 0.00 69 1019.5
20260903125112 74 0.0 0.0 0.00 0.00 0.00 77 1019.6
20260903124109 74 0.0 0.0 0.00 0.00 0.00 84 1019.5
20260903123106 73 0.0 0.0 0.00 0.00 0.00 86 1019.5
20260903122102 73 270 0.0 1.0 0.00 0.00 0.00 87 1019.7
20260903121058 72 0.0 0.0 0.00 0.00 0.00 90 1019.4
20260903120055 72 0.0 0.0 0.00 0.00 0.00 91 1019.4
20260903115051 72 0.0 0.0 0.00 0.00 0.00 90 1019.3
20260903114047 72 0.0 0.0 0.00 0.00 0.00 90 1019.1
20260903113124 72 0.0 0.0 0.00 0.00 0.00 90 1018.9
20260903112040 72 0.0 0.0 0.00 0.00 0.00 88 1018.8
20260903111035 72 0.0 0.0 0.00 0.00 0.00 89 1018.7
20260903110032 72 0.0 0.0 0.00 0.00 0.00 89 1018.6
20260903105028 72 0.0 0.0 0.00 0.00 0.00 89 1018.7
20260903104025 72 0.0 0.0 0.00 0.00 0.00 90 1018.6
20260903103021 72 0.0 0.0 0.00 0.00 0.00 90 1018.7
20260903102018 72 90 1.0 3.0 0.00 0.00 0.00 88 1018.8
20260903101115 72 90 1.0 2.0 0.00 0.00 0.00 88 1018.6
20260903100111 73 0.0 0.0 0.00 0.00 0.00 86 1018.4
20260903095108 73 0.0 0.0 0.00 0.00 0.00 86 1018.4
20260903094105 73 0.0 0.0 0.00 0.00 0.00 86 1018.4
20260903093101 73 0 0.0 1.0 0.00 0.00 0.00 87 1018.3
20260903092058 73 0.0 0.0 0.00 0.00 0.00 87 1018.3
20260903091054 73 0.0 0.0 0.00 0.00 0.00 86 1018.3
20260903090051 73 0.0 0.0 0.00 0.00 0.00 86 1018.2
20260903085107 73 0.0 0.0 0.00 0.00 0.00 86 1018.4
20260903084044 73 0.0 0.0 0.00 0.00 0.00 85 1018.1
20260903083041 73 0.0 0.0 0.00 0.00 0.00 85 1018.1
20260903082038 73 0.0 0.0 0.00 0.00 0.00 84 1018.2
20260903081034 73 0.0 0.0 0.00 0.00 0.00 81 1018.2
20260903080031 73 0.0 0.0 0.00 0.00 0.00 78 1018.3
20260903075027 73 0.0 0.0 0.00 0.00 0.00 78 1018.2
20260903074024 74 0.0 0.0 0.00 0.00 0.00 79 1018.1
20260903073021 74 0.0 0.0 0.00 0.00 0.00 80 1017.9
20260903072017 74 0.0 0.0 0.00 0.00 0.00 80 1017.9
20260903071114 74 0.0 0.0 0.00 0.00 0.00 79 1018.0
20260903070111 74 0.0 0.0 0.00 0.00 0.00 79 1018.0
20260903065107 74 0.0 0.0 0.00 0.00 0.00 79 1017.9
20260903064104 74 0.0 0.0 0.00 0.00 0.00 80 1017.9
20260903063101 74 0.0 0.0 0.00 0.00 0.00 83 1018.0
20260903062057 74 0.0 0.0 0.00 0.00 0.00 81 1018.0
20260903061054 74 0.0 0.0 0.00 0.00 0.00 79 1018.1
20260903060050 74 0.0 0.0 0.00 0.00 0.00 78 1018.0
20260903055047 74 0.0 0.0 0.00 0.00 0.00 75 1018.1
20260903054043 75 0.0 0.0 0.00 0.00 0.00 77 1018.1
20260903053100 75 0.0 0.0 0.00 0.00 0.00 76 1018.2
20260903052037 75 0.0 0.0 0.00 0.00 0.00 73 1018.0
20260903051033 75 0.0 0.0 0.00 0.00 0.00 74 1018.2
20260903050110 75 0.0 0.0 0.00 0.00 0.00 72 1018.1
20260903045026 75 0.0 0.0 0.00 0.00 0.00 70 1018.3
20260903044023 76 0.0 0.0 0.00 0.00 0.00 69 1018.0
20260903043019 76 0.0 0.0 0.00 0.00 0.00 69 1017.9
20260903042036 76 0.0 0.0 0.00 0.00 0.00 68 1018.0
20260903041133 76 0.0 0.0 0.00 0.00 0.00 68 1018.2
20260903040109 76 0.0 0.0 0.00 0.00 0.00 67 1018.2
20260903035106 77 0.0 0.0 0.00 0.00 0.00 67 1018.2
20260903034103 77 0.0 0.0 0.00 0.00 0.00 67 1018.1
20260903033059 77 0.0 0.0 0.00 0.00 0.00 66 1018.3
20260903032056 78 0.0 0.0 0.00 0.00 0.00 66 1018.5
20260903031053 78 0.0 0.0 0.00 0.00 0.00 66 1018.3
20260903030049 78 0.0 0.0 0.00 0.00 0.00 66 1018.5
20260903025046 78 0.0 0.0 0.00 0.00 0.00 65 1018.7
20260903024042 79 0.0 0.0 0.00 0.00 0.00 65 1018.8
20260903023059 79 0.0 0.0 0.00 0.00 0.00 65 1018.7
20260903022056 79 0.0 0.0 0.00 0.00 0.00 65 1018.8
20260903021112 79 0.0 0.0 0.00 0.00 0.00 63 1018.8
20260903020049 80 0.0 0.0 0.00 0.00 0.00 64 1018.8
20260903015025 80 0.0 0.0 0.00 0.00 0.00 62 1018.8
20260903014022 81 0.0 0.0 0.00 0.00 0.00 61 1018.8
20260903013018 81 0.0 0.0 0.00 0.00 0.00 60 1018.7
20260903012015 81 0.0 0.0 0.00 0.00 0.00 61 1018.6
20260903011112 81 0.0 0.0 0.00 0.00 0.00 62 1018.6
20260903010108 82 0.0 0.0 0.00 0.00 0.00 57 1018.5
20260903005125 83 0.0 0.0 0.00 0.00 0.00 56 1018.4
20260903004101 83 0.0 0.0 0.00 0.00 0.00 56 1018.4
20260903003118 84 0.0 0.0 0.00 0.00 0.00 56 1018.3
20260903002055 84 0.0 0.0 0.00 0.00 0.00 55 1018.3
20260903001111 85 0.0 0.0 0.00 0.00 0.00 51 1018.2
20260903000128 86 0.0 0.0 0.00 0.00 0.00 50 1018.1
20260902235045 86 0.0 0.0 0.00 0.00 0.00 49 1018.1
20260902234041 87 0.0 0.0 0.00 0.00 0.00 49 1018.0
20260902233057 88 0.0 0.0 0.00 0.00 0.00 49 1018.0
20260902232114 88 0.0 0.0 0.00 0.00 0.00 47 1017.9
20260902231030 89 0.0 0.0 0.00 0.00 0.00 47 1017.8
20260902230027 90 0.0 0.0 0.00 0.00 0.00 47 1017.8
20260902225024 90 0.0 0.0 0.00 0.00 0.00 46 1017.9
20260902224020 91 0.0 0.0 0.00 0.00 0.00 42 1017.8
20260902223017 91 0.0 0.0 0.00 0.00 0.00 38 1017.8
20260902222113 91 0.0 0.0 0.00 0.00 0.00 39 1017.9
20260902221110 92 0.0 0.0 0.00 0.00 0.00 39 1017.9
20260902220107 92 0.0 0.0 0.00 0.00 0.00 39 1018.0
20260902215123 92 0.0 0.0 0.00 0.00 0.00 40 1017.9
20260902214120 92 0.0 0.0 0.00 0.00 0.00 40 1017.9
20260902213116 93 0.0 0.0 0.00 0.00 0.00 40 1018.0
20260902212053 93 0 0.0 1.0 0.00 0.00 0.00 40 1018.0
20260902211050 93 0 1.0 3.0 0.00 0.00 0.00 40 1018.0
20260902210046 93 0.0 0.0 0.00 0.00 0.00 43 1018.0
20260902205043 94 78 1.0 2.0 0.00 0.00 0.00 44 1018.0
20260902204039 94 0 0.0 1.0 0.00 0.00 0.00 44 1018.0
20260902203036 93 287 1.0 3.0 0.00 0.00 0.00 43 1018.0
20260902202033 94 342 1.0 2.0 0.00 0.00 0.00 43 1018.1
20260902201029 94 270 0.0 2.0 0.00 0.00 0.00 44 1018.2
20260902200026 94 0 0.0 2.0 0.00 0.00 0.00 41 1018.4
20260902195022 93 56 1.0 3.0 0.00 0.00 0.00 44 1018.5
20260902194019 94 301 1.0 3.0 0.00 0.00 0.00 44 1018.7
20260902193015 93 307 1.0 3.0 0.00 0.00 0.00 44 1018.8
20260902192112 93 290 1.0 2.0 0.00 0.00 0.00 42 1018.7
20260902191109 92 311 1.0 2.0 0.00 0.00 0.00 40 1018.9
20260902190125 93 311 2.0 3.0 0.00 0.00 0.00 43 1019.1
20260902185102 93 270 1.0 2.0 0.00 0.00 0.00 41 1019.2
20260902184058 92 355 1.0 2.0 0.00 0.00 0.00 40 1019.1
20260902183055 92 270 1.0 3.0 0.00 0.00 0.00 40 1019.2
20260902182051 92 0 2.0 3.0 0.00 0.00 0.00 37 1019.3
20260902181048 92 320 1.0 3.0 0.00 0.00 0.00 40 1019.3
20260902180044 93 334 1.0 3.0 0.00 0.00 0.00 40 1019.4
20260902175101 92 270 2.0 3.0 0.00 0.00 0.00 41 1019.5
20260902174057 94 315 1.0 2.0 0.00 0.00 0.00 43 1019.5
20260902173034 93 293 1.0 3.0 0.00 0.00 0.00 43 1019.6
20260902172030 92 351 1.0 2.0 0.00 0.00 0.00 43 1019.7
20260902171026 92 315 1.0 3.0 0.00 0.00 0.00 43 1019.9
20260902170023 93 350 1.0 5.0 0.00 0.00 0.00 44 1020.1
20260902165020 93 0 1.0 2.0 0.00 0.00 0.00 44 1020.1
20260902164016 92 0 1.0 3.0 0.00 0.00 0.00 42 1020.2
20260902163113 92 0 2.0 3.0 0.00 0.00 0.00 44 1020.4
20260902162110 92 0 2.0 3.0 0.00 0.00 0.00 44 1020.5
20260902161106 91 0 1.0 2.0 0.00 0.00 0.00 38 1020.4
20260902160103 91 0 1.0 3.0 0.00 0.00 0.00 41 1020.4
20260902155059 88 0 1.0 1.0 0.00 0.00 0.00 46 1020.5
20260902154056 88 0 1.0 2.0 0.00 0.00 0.00 47 1020.6
20260902153052 87 0 1.0 3.0 0.00 0.00 0.00 48 1020.5
20260902152049 86 0.0 0.0 0.00 0.00 0.00 46 1020.6
20260902151046 86 0 1.0 2.0 0.00 0.00 0.00 47 1020.6
20260902150043 85 0.0 0.0 0.00 0.00 0.00 52 1020.4
20260902145039 84 0.0 0.0 0.00 0.00 0.00 55 1020.4
20260902144056 84 0.0 0.0 0.00 0.00 0.00 55 1020.4
20260902143033 83 0.0 0.0 0.00 0.00 0.00 55 1020.4
20260902142029 82 0.0 0.0 0.00 0.00 0.00 56 1020.3
20260902141026 81 0.0 0.0 0.00 0.00 0.00 58 1020.2
20260902140043 80 0.0 0.0 0.00 0.00 0.00 59 1020.3
20260902135019 79 0.0 0.0 0.00 0.00 0.00 60 1020.3
20260902134016 78 0.0 0.0 0.00 0.00 0.00 61 1020.2